Tracking 27380 objects as of 5-Jun-2023
HD Live streaming from Space Station
objects crossing your sky now

STARLINK-1610

Track STARLINK-1610 now!
10-day predictions
STARLINK-1610 is classified as:


NORAD ID: 46163
Int'l Code: 2020-057AY
Perigee: 553.5 km
Apogee: 555.3 km
Inclination: 53.1 °
Period: 95.6 minutes
Semi major axis: 6925 km
RCS: Unknown
Launch date: August 18, 2020
Source: United States (US)
Launch site: AIR FORCE EASTERN TEST RANGE (AFETR)
Your satellite tracking list
Your tracking list is empty




NASA's NSSDC Master Catalog

Two Line Element Set (TLE):
1 46163U 20057AY  23156.19418678  .00002374  00000-0  17823-3 0  9995
2 46163  53.0545 123.9284 0001306  82.1462 277.9675 15.06396581155284
Source of the keplerian elements: AFSPC